sat.trackr.live / text

‹ back to catalog

CHUANG XIN 26 (CX-26)

NORAD 69972 · 2026-158A

PAYLOAD ACTIVE UNKNOWN

§ Identity

Operator
Country
PRC
Launch date
2026-07-10
Launch site
WSC
Launch vehicle
Mass (kg)
RCS (m²)

External: N2YO · Heavens-Above · Gunter

§ Orbital elements

Epoch: 2026-09-20T03:55:21.298080Z

Period
101.04 min
Inclination
49.9857°
Eccentricity
0.0005204
Mean motion
14.25130814 rev/d
Perigee alt
804.3 km
Apogee alt
811.8 km
Semi-major
7,186.2 km
B*
1.0750e-4
RAAN
357.7874°
Arg perigee
179.1215°
Mean anomaly
180.9708°
Rev number
1,025

§ Raw data

CHUANG XIN 26 (CX-26)1 69972U 26158A   26263.16344095  .00000094  00000+0  10750-3 0  99942 69972  49.9857 357.7874 0005204 179.1215 180.9708 14.25130814 10255

JSON: /api/v1/satellites/69972 · /tle

For live sub-satellite position, see the globe view (requires WebGL).

§ Visibility from observer

Set your observer location to see the next 7 days of passes ≥ 10°. The values pass through the URL so the page stays shareable.

No JS? Fill the form by hand. The geolocation button needs JavaScript.